Location: Unspecified
(45.6669°N, 0.0000°E)
Time: 19:13:53
(UTC+00:00)

ISS - Pass Details

Date: 24 May 2019
Orbit: 408 x 418 km, 51.6° (Epoch: 18 June)

Event Time Altitude Azimuth Distance (km) Brightness Sun altitude
Rises 22:09:50 0° 292° (WNW) 2,359 0.8 -19.2°
Reaches altitude 10° 22:12:06 10° 304° (NW) 1,497 -0.1 -19.4°
Maximum altitude 22:15:07 30° 7° (N) 781 -1.9 -19.6°
Enters shadow 22:17:45 12° 68° (ENE) 1,363 -1.2 -19.8°
